[[{"header":{"parameterUnit":"m.s-1","parameterCategory":1,"la1":30.2992,"la2":30.254,"lo1":-89.0895,"lo2":-89.0443,"dy":0.0025,"dx":0.0025,"nx":19,"ny":19,"refTime":"2026-03-23T09:00:00:Z","depth":0,"parameterNumber":2,"parameterNumberName":"U-component_of_WINDS"},"data":[0,0,0,0.2761,0.2762,0.2839,0.2839,0.2909,0.2909,0,0,0,0,0,0,0,0,0,0,0,0.2721,0.2721,0.276,0.2762,0.2839,0.2839,0.2909,0.2909,0,0,0,0,0,0,0,0,0,0,0,0.2721,0.2721,0.2721,0.2762,0.2839,0.2839,0.2909,0.2861,0,0,0,0,0,0,0,0,0,0,0.2791,0.2739,0.2721,0.2721,0.2762,0.2839,0.2839,0.2859,0.2864,0.2862,0,0.2857,0,0.2884,0.2912,0.2912,0,0,0,0.2774,0.2735,0.277,0.2721,0.2763,0.2838,0.2807,0.2862,0.2867,0.2868,0.2859,0.2862,0.2885,0.2912,0.2913,0.2865,0.2864,0,0,0.277,0.2726,0.2767,0.2773,0.2761,0.2805,0.281,0.2866,0.2852,0.2859,0.2864,0.2886,0.2913,0.2913,0.2866,0.2865,0,0,0,0.2749,0.2723,0.2758,0.2769,0.2786,0.2807,0.2812,0.2849,0.2864,0.2865,0.2887,0.2913,0.2913,0.2867,0.2866,0.2784,0,0,0,0.2747,0.2711,0.2755,0.2729,0.2784,0.2819,0.2794,0.286,0.2868,0.2887,0.2913,0.2914,0.2868,0.2866,0.2788,0.2752,0,0,0,0.2722,0.2708,0.2714,0.2727,0.2759,0.2819,0.2837,0.2863,0.2881,0.2912,0.2914,0.2868,0.2866,0.2792,0.2758,0.2725,0,0,0,0.2682,0.2641,0.2712,0.2675,0.2758,0.2768,0.2838,0.2848,0.2865,0.2913,0.2868,0.2866,0.2793,0.2762,0.2729,0.2688,0.2668,0,0,0.2606,0.263,0.2612,0.2677,0.2664,0.276,0.2735,0.2792,0.2834,0.2852,0.2852,0.2787,0.2759,0.2726,0.2572,0.2555,0,0,0,0.2572,0.2558,0.2564,0.2579,0.2622,0.2654,0.272,0.2741,0.2758,0.2835,0.2769,0.2753,0.2736,0.2718,0.2704,0.2691,0.2856,0.2857,0.2857,0.2401,0.2458,0.243,0.2496,0.2509,0.2576,0.2592,0.2631,0.2685,0.2668,0.2673,0.2573,0.2551,0.254,0.2526,0.2658,0.2658,0.2658,0.2657,0.2292,0.228,0.2353,0.2352,0.2411,0.2411,0.2474,0.2512,0.2519,0.2574,0.2562,0.2615,0.252,0.2511,0.2652,0.2653,0.2653,0.2654,0.2654,0.2184,0.2188,0.2215,0.2241,0.2255,0.2323,0.2326,0.2382,0.2433,0.2421,0.2431,0.2432,0.2439,0.2422,0.2422,0.2422,0.2421,0.2421,0.2421,0.2061,0.2094,0.209,0.2131,0.2147,0.2175,0.2242,0.2259,0.2292,0.2331,0.2332,0.2385,0.2502,0.2528,0.2416,0.2417,0.2417,0.2418,0.2418,0.1925,0.1965,0.1959,0.1975,0.2027,0.2036,0.2107,0.2136,0.2158,0.2157,0.2215,0.2292,0.2321,0.2332,0.2355,0.2204,0.2204,0.2204,0.2204,0.1832,0.1853,0.1859,0.188,0.1908,0.1971,0.196,0.2012,0.2071,0.2087,0.2118,0.2153,0.2162,0.2185,0.22,0.2221,0.204,0.204,0.204,0.1751,0.1777,0.1757,0.1817,0.1862,0.1899,0.189,0.191,0.1986,0.2034,0.2101,0.2108,0.2165,0.2182,0.2229,0.225,0.2291,0,0]},{"header":{"parameterUnit":"m.s-1","parameterCategory":1,"la1":30.2992,"la2":30.254,"lo1":-89.0895,"lo2":-89.0443,"dy":0.0025,"dx":0.0025,"nx":19,"ny":19,"refTime":"2026-03-23T09:00:00:Z","depth":0,"parameterNumber":3,"parameterNumberName":"V-component_of_WINDS"},"data":[0,0,0,-0.6676,-0.6676,-0.6663,-0.6663,-0.6656,-0.6656,0,0,0,0,0,0,0,0,0,0,0,-0.6686,-0.6687,-0.6676,-0.6676,-0.6663,-0.6663,-0.6656,-0.6656,0,0,0,0,0,0,0,0,0,0,0,-0.6686,-0.6686,-0.6687,-0.6676,-0.6663,-0.6663,-0.6656,-0.6663,0,0,0,0,0,0,0,0,0,0,-0.6674,-0.6689,-0.6686,-0.6687,-0.6676,-0.6663,-0.6663,-0.6663,-0.6662,-0.6667,0,-0.6672,0,-0.6664,-0.6657,-0.6657,0,0,0,-0.6672,-0.6689,-0.668,-0.6687,-0.6676,-0.6663,-0.6668,-0.6662,-0.6662,-0.6666,-0.6672,-0.6671,-0.6664,-0.6657,-0.6657,-0.6698,-0.6698,0,0,-0.6672,-0.6687,-0.6681,-0.668,-0.6683,-0.6668,-0.6668,-0.6662,-0.6669,-0.6672,-0.6671,-0.6664,-0.6657,-0.6657,-0.6698,-0.6698,0,0,0,-0.6678,-0.6688,-0.6679,-0.6681,-0.6678,-0.6668,-0.6667,-0.667,-0.6665,-0.6671,-0.6664,-0.6657,-0.6657,-0.6697,-0.6698,-0.6734,0,0,0,-0.6678,-0.6691,-0.6679,-0.6688,-0.6678,-0.6673,-0.6675,-0.6666,-0.6665,-0.6664,-0.6657,-0.6657,-0.6697,-0.6697,-0.6732,-0.6749,0,0,0,-0.6685,-0.6692,-0.6692,-0.6689,-0.6684,-0.6673,-0.6669,-0.6665,-0.6661,-0.6657,-0.6657,-0.6696,-0.6697,-0.673,-0.6746,-0.6765,0,0,0,-0.6697,-0.6723,-0.6693,-0.6719,-0.6684,-0.6695,-0.6668,-0.6675,-0.6676,-0.6657,-0.6697,-0.6698,-0.6729,-0.6744,-0.6763,-0.6786,-0.6796,0,0,-0.6738,-0.6728,-0.6743,-0.6715,-0.6736,-0.6696,-0.6721,-0.6707,-0.6693,-0.6697,-0.6698,-0.6732,-0.6745,-0.6765,-0.6845,-0.6853,0,0,0,-0.6761,-0.6772,-0.6773,-0.6775,-0.6766,-0.6759,-0.674,-0.6735,-0.6738,-0.6698,-0.6743,-0.675,-0.6761,-0.6771,-0.6778,-0.6788,-0.6702,-0.6702,-0.6702,-0.6841,-0.6822,-0.6844,-0.6824,-0.6826,-0.6806,-0.6806,-0.6796,-0.6775,-0.6786,-0.6788,-0.6839,-0.6851,-0.6856,-0.6866,-0.6796,-0.6796,-0.6796,-0.6797,-0.6901,-0.6914,-0.6886,-0.6898,-0.6878,-0.6888,-0.6869,-0.6855,-0.6861,-0.6835,-0.6844,-0.6819,-0.6866,-0.6873,-0.6799,-0.6799,-0.6798,-0.6798,-0.6798,-0.6953,-0.6956,-0.6949,-0.695,-0.6953,-0.6931,-0.6939,-0.6919,-0.6901,-0.6909,-0.691,-0.6909,-0.6908,-0.691,-0.691,-0.6911,-0.6911,-0.6911,-0.6911,-0.7011,-0.7002,-0.7011,-0.7004,-0.7003,-0.6999,-0.6979,-0.6977,-0.6971,-0.6956,-0.6956,-0.6935,-0.6873,-0.6859,-0.6914,-0.6913,-0.6913,-0.6913,-0.6912,-0.7082,-0.7062,-0.7077,-0.7076,-0.7066,-0.7071,-0.7045,-0.7044,-0.704,-0.7045,-0.7022,-0.6978,-0.6967,-0.6961,-0.695,-0.7025,-0.7025,-0.7025,-0.7025,-0.7127,-0.7119,-0.7131,-0.7131,-0.7128,-0.7107,-0.7125,-0.711,-0.7091,-0.7088,-0.7073,-0.7056,-0.7051,-0.7042,-0.7035,-0.7024,-0.7116,-0.7116,-0.7116,-0.7171,-0.7162,-0.7181,-0.7163,-0.7153,-0.7146,-0.7163,-0.7164,-0.7139,-0.7119,-0.7085,-0.7081,-0.7052,-0.7043,-0.7025,-0.7013,-0.6993,0,0]}]]